Flag for Paraguay Weather past 2 weeks in Asuncion, Paraguay

Now
88 °F

Passing clouds.


Feels Like: 98 °F
Forecast: N/A
Wind: 8 mph from Northeast

Location: Asuncion / Aeropuerto

Current Time: Dec 20, 2014 at 8:27:47 PM

Latest Report: Dec 20, 2014 at 8:00 PM


Visibility: N/A

Pressure: 29.45 "Hg

Humidity: 66%

Dew point: 75 °F

Location of AsuncionLocation

Historic Weather in Asuncion — Graph

°F

Asuncion temperature yesterday

Maximum temperature yesterday: 93 °F (at 4:00 PM)
Minimum temperature yesterday: 73 °F (at 2:00 AM)
Average temperature yesterday: 83 °F

Past Weeks' High & Low Weather Summary

 TemperatureHumidityPressure
High97 °F (Dec 15, 5:00 PM)100% (Dec 13, 6:00 AM)29.92 "Hg (Dec 13, 6:00 AM)
Low70 °F (Dec 18, 2:00 AM)41% (Dec 14, 4:00 PM)29.45 "Hg (Dec 20, 5:00 PM)
Average83 °F72%29.77 "Hg
* Reported Dec 5 7:00 PM — Dec 20 7:00 PM, Asuncion, Weather by CustomWeather, © 2014

Note: Actual official high and low records may vary slightly from our data, if they occured in-between our weather recording intervals... More about our weather records

Advertising

Asuncion weather history for previous 24 hours

 ConditionsComfort  
Time TempWeatherWind HumidityBarometerVisibility
7:00 PM
Dec 20
91 °FPassing clouds.13 mph59%29.45 "HgN/A
6:00 PM93 °FScattered clouds.15 mph56%29.45 "HgN/A
5:00 PM93 °FScattered clouds.17 mph56%29.45 "HgN/A
4:00 PM93 °FPartly sunny.16 mph56%29.50 "HgN/A
3:00 PM95 °FPartly sunny.17 mph56%29.53 "HgN/A
2:00 PM93 °FPartly sunny.16 mph59%29.56 "HgN/A
1:00 PM93 °FScattered clouds.16 mph59%29.59 "HgN/A
12:00 PM91 °FScattered clouds.16 mph59%29.59 "HgN/A
11:00 AM90 °FScattered clouds.14 mph63%29.62 "HgN/A
10:30 AM90 °FScattered clouds.15 mph63%29.62 "HgN/A
10:00 AM88 °FScattered clouds.15 mph66%29.62 "HgN/A
9:30 AM88 °FPassing clouds.15 mph66%29.62 "HgN/A
9:00 AM86 °FPassing clouds.12 mph70%29.62 "HgN/A
8:30 AM84 °FPassing clouds.12 mph79%29.62 "HgN/A
8:00 AM81 °FPassing clouds.5 mph70%29.68 "HgN/A
7:00 AM81 °FSunny.5 mph89%29.62 "Hg10 mi
6:00 AM79 °FScattered clouds.5 mph89%29.62 "HgN/A
5:00 AM79 °FClear.5 mph89%29.59 "Hg10 mi
4:00 AM77 °FClear.No wind89%29.59 "Hg10 mi
3:00 AM79 °FClear.No wind89%29.59 "Hg10 mi
1:00 AM79 °FClear.2 mph89%29.62 "Hg10 mi
12:00 AM79 °FClear.2 mph89%29.62 "Hg10 mi
11:00 PM
Dec 19
79 °FClear.2 mph89%29.65 "Hg10 mi
10:00 PM81 °FClear.2 mph84%29.62 "Hg10 mi
9:00 PM82 °FClear.2 mph79%29.62 "Hg10 mi
8:00 PM86 °FClear.3 mph70%29.59 "Hg10 mi
Weather by CustomWeather, © 2014

See weather overviewHow to use our weather pages